Location: Mount Hamilton
(37.3433°N, 121.6347°W)
Time: 21:10:51
(UTC-08:00)

N. Korean satellite - Visible Passes

Search period start: 19 January 2018 00:00
Search period end: 29 January 2018 00:00
Orbit: 459 x 515 km, 97.2° (Epoch: 19 January)

Date Brightness Start Highest point End Pass type
(mag) Time Alt. Az. Time Alt. Az. Time Alt. Az.
19 Jan 10.0 05:50:28 10° ENE 05:51:57 12° E 05:53:27 10° ESE visible
19 Jan 6.5 17:56:00 10° SSE 17:59:35 66° ENE 18:03:08 10° N visible
20 Jan 10.0 19:07:45 10° WSW 19:09:34 13° W 19:11:22 10° WNW visible
21 Jan 7.4 06:34:55 10° NNE 06:38:18 53° E 06:41:41 10° S visible
21 Jan 8.9 18:42:42 10° SSW 18:45:47 26° W 18:48:50 10° NW visible
22 Jan 9.1 06:11:42 10° NE 06:14:34 24° E 06:17:26 10° SSE visible
22 Jan 7.3 18:18:32 10° S 18:22:04 56° W 18:25:34 10° NNW visible
23 Jan 10.1 05:49:21 10° ENE 05:50:46 12° E 05:52:11 10° ESE visible
23 Jan 6.5 17:54:52 10° SSE 17:58:25 64° ENE 18:01:55 10° N visible
24 Jan 10.0 19:06:34 10° SW 19:08:22 13° W 19:10:11 10° WNW visible
25 Jan 7.5 06:33:42 10° NNE 06:37:05 52° E 06:40:29 10° S visible
25 Jan 8.9 18:41:32 10° SSW 18:44:35 27° W 18:47:37 10° NW visible
26 Jan 9.2 06:10:29 10° NE 06:13:21 24° E 06:16:13 10° SSE visible
26 Jan 7.2 18:17:22 10° S 18:20:51 58° W 18:24:20 10° NNW visible
27 Jan 10.1 05:48:11 10° ENE 05:49:33 12° E 05:50:54 10° ESE visible
27 Jan 6.5 17:53:42 10° SSE 17:57:12 61° ENE 18:00:40 10° N visible
28 Jan 10.0 19:05:19 10° SW 19:07:08 14° W 19:08:58 10° WNW visible
